| time (UTC) | temp C | wind direction | speed KPH | gust KPH | rain 1hr cm | rain 24hr cm | rain mn cm | humidity % | barometer mb |
| 20260906193023 | 35 | 176 | 1.6 | 8.0 | 0.00 | 0.00 | 0.00 | 39 | 1009.0 |
| 20260906191520 | 35 | 148 | 6.4 | 14.5 | 0.00 | 0.00 | 0.00 | 39 | 1009.2 |
| 20260906190020 | 35 | 83 | 4.8 | 12.9 | 0.00 | 0.00 | 0.00 | 40 | 1009.5 |
| 20260906184517 | 34 | 109 | 6.4 | 16.1 | 0.00 | 0.00 | 0.00 | 40 | 1009.9 |
| 20260906183017 | 34 | 142 | 0.0 | 8.0 | 0.00 | 0.00 | 0.00 | 41 | 1010.2 |
| 20260906181519 | 33 | 32 | 1.6 | 9.7 | 0.00 | 0.00 | 0.00 | 41 | 1010.3 |
| 20260906180018 | 34 | 90 | 1.6 | 8.0 | 0.00 | 0.00 | 0.00 | 42 | 1010.6 |
| 20260906174513 | 34 | 89 | 3.2 | 16.1 | 0.00 | 0.00 | 0.00 | 41 | 1010.7 |
| 20260906173013 | 33 | 36 | 3.2 | 14.5 | 0.00 | 0.00 | 0.00 | 42 | 1011.1 |
| 20260906171512 | 33 | 313 | 1.6 | 11.3 | 0.00 | 0.00 | 0.00 | 42 | 1011.3 |
| 20260906170012 | 33 | 309 | 6.4 | 16.1 | 0.00 | 0.00 | 0.00 | 42 | 1011.5 |
| 20260906164510 | 33 | 43 | 1.6 | 12.9 | 0.00 | 0.00 | 0.00 | 42 | 1011.7 |
| 20260906163009 | 33 | 327 | 3.2 | 14.5 | 0.00 | 0.00 | 0.00 | 44 | 1011.7 |
| 20260906161507 | 32 | 292 | 4.8 | 14.5 | 0.00 | 0.00 | 0.00 | 45 | 1011.6 |
| 20260906160014 | 31 | 299 | 1.6 | 9.7 | 0.00 | 0.00 | 0.00 | 47 | 1011.3 |
| 20260906154508 | 32 | 13 | 6.4 | 24.1 | 0.00 | 0.00 | 0.00 | 47 | 1011.1 |
| 20260906153005 | 33 | 278 | 8.0 | 14.5 | 0.00 | 0.00 | 0.00 | 42 | 1011.1 |
| 20260906151504 | 33 | 298 | 3.2 | 9.7 | 0.00 | 0.00 | 0.00 | 43 | 1011.1 |
| 20260906150111 | 32 | 229 | 0.0 | 6.4 | 0.00 | 0.00 | 0.00 | 46 | 1011.1 |
| 20260906144556 | 31 | 223 | 1.6 | 6.4 | 0.00 | 0.00 | 0.00 | 48 | 1011.1 |
| 20260906143055 | 30 | 210 | 3.2 | 8.0 | 0.00 | 0.00 | 0.00 | 51 | 1011.1 |
| 20260906141550 | 30 | 231 | 4.8 | 9.7 | 0.00 | 0.00 | 0.00 | 52 | 1011.1 |
| 20260906140055 | 28 | 231 | 6.4 | 11.3 | 0.00 | 0.00 | 0.00 | 55 | 1011.0 |
| 20260906134542 | 27 | 171 | 3.2 | 6.4 | 0.00 | 0.00 | 0.00 | 62 | 1011.0 |
| 20260906133106 | 25 | 136 | 0.0 | 6.4 | 0.00 | 0.00 | 0.00 | 67 | 1010.8 |
| 20260906131539 | 24 | 147 | 1.6 | 4.8 | 0.00 | 0.00 | 0.00 | 68 | 1010.6 |
| 20260906130038 | 23 | 165 | 1.6 | 8.0 | 0.00 | 0.00 | 0.00 | 71 | 1010.5 |
| 20260906124537 | 22 | 166 | 0.0 | 0.0 | 0.00 | 0.00 | 0.00 | 72 | 1010.2 |
| 20260906123037 | 22 | 166 | 0.0 | 0.0 | 0.00 | 0.00 | 0.00 | 73 | 1010.1 |
| 20260906121541 | 22 | 166 | 0.0 | 0.0 | 0.00 | 0.00 | 0.00 | 73 | 1009.7 |
| 20260906120038 | 22 | 166 | 0.0 | 0.0 | 0.00 | 0.00 | 0.00 | 73 | 1009.5 |
| 20260906114544 | 22 | 166 | 0.0 | 0.0 | 0.00 | 0.00 | 0.00 | 73 | 1009.4 |
| 20260906113032 | 22 | 166 | 0.0 | 0.0 | 0.00 | 0.00 | 0.00 | 71 | 1009.0 |
| 20260906111530 | 22 | 166 | 0.0 | 1.6 | 0.00 | 0.00 | 0.00 | 71 | 1008.9 |
| 20260906110030 | 22 | 166 | 0.0 | 0.0 | 0.00 | 0.00 | 0.00 | 71 | 1008.9 |
| 20260906104529 | 23 | 166 | 0.0 | 0.0 | 0.00 | 0.00 | 0.00 | 70 | 1008.9 |
| 20260906103027 | 23 | 169 | 0.0 | 6.4 | 0.00 | 0.00 | 0.00 | 70 | 1008.9 |
| 20260906101527 | 23 | 181 | 1.6 | 6.4 | 0.00 | 0.00 | 0.00 | 70 | 1008.9 |
| 20260906100036 | 23 | 164 | 0.0 | 0.0 | 0.00 | 0.00 | 0.00 | 69 | 1008.9 |
| 20260906094528 | 23 | 155 | 0.0 | 1.6 | 0.00 | 0.00 | 0.00 | 69 | 1008.9 |
| 20260906093028 | 23 | 147 | 1.6 | 6.4 | 0.00 | 0.00 | 0.00 | 68 | 1008.8 |
| 20260906091525 | 23 | 136 | 0.0 | 1.6 | 0.00 | 0.00 | 0.00 | 68 | 1008.9 |
| 20260906090019 | 23 | 119 | 0.0 | 8.0 | 0.00 | 0.00 | 0.00 | 67 | 1008.9 |
| 20260906084519 | 23 | 113 | 0.0 | 6.4 | 0.00 | 0.00 | 0.00 | 67 | 1008.7 |
| 20260906083017 | 24 | 117 | 3.2 | 4.8 | 0.00 | 0.00 | 0.00 | 66 | 1008.7 |
| 20260906081519 | 24 | 138 | 1.6 | 6.4 | 0.00 | 0.00 | 0.00 | 66 | 1008.6 |
| 20260906080014 | 24 | 138 | 3.2 | 4.8 | 0.00 | 0.00 | 0.00 | 65 | 1008.8 |
| 20260906074512 | 25 | 136 | 0.0 | 3.2 | 0.00 | 0.00 | 0.00 | 64 | 1008.5 |
| 20260906073010 | 25 | 129 | 3.2 | 4.8 | 0.00 | 0.00 | 0.00 | 63 | 1008.7 |
| 20260906071510 | 25 | 171 | 1.6 | 3.2 | 0.00 | 0.00 | 0.00 | 63 | 1008.5 |
| 20260906070009 | 25 | 163 | 1.6 | 4.8 | 0.00 | 0.00 | 0.00 | 64 | 1008.3 |
| 20260906064508 | 25 | 181 | 3.2 | 4.8 | 0.00 | 0.00 | 0.00 | 64 | 1008.3 |
| 20260906063005 | 25 | 174 | 0.0 | 0.0 | 0.00 | 0.00 | 0.00 | 62 | 1008.3 |
| 20260906061502 | 26 | 165 | 0.0 | 6.4 | 0.00 | 0.00 | 0.00 | 61 | 1008.3 |
| 20260906060100 | 26 | 134 | 3.2 | 4.8 | 0.00 | 0.00 | 0.00 | 61 | 1008.3 |
| 20260906054605 | 26 | 139 | 0.0 | 1.6 | 0.00 | 0.00 | 0.00 | 60 | 1008.3 |
| 20260906053101 | 26 | 163 | 0.0 | 0.0 | 0.00 | 0.00 | 0.00 | 60 | 1008.3 |
| 20260906051611 | 26 | 134 | 0.0 | 0.0 | 0.00 | 0.00 | 0.00 | 60 | 1008.3 |
| 20260906050053 | 26 | 132 | 1.6 | 3.2 | 0.00 | 0.00 | 0.00 | 59 | 1008.2 |
| 20260906044601 | 27 | 135 | 1.6 | 3.2 | 0.00 | 0.00 | 0.00 | 59 | 1008.2 |
| 20260906043052 | 27 | 182 | 3.2 | 6.4 | 0.00 | 0.00 | 0.00 | 58 | 1008.2 |
| 20260906041553 | 27 | 169 | 3.2 | 4.8 | 0.00 | 0.00 | 0.00 | 57 | 1008.2 |
| 20260906040128 | 28 | 178 | 6.4 | 9.7 | 0.00 | 0.00 | 0.00 | 55 | 1008.1 |
| 20260906034603 | 28 | 159 | 3.2 | 8.0 | 0.00 | 0.00 | 0.00 | 55 | 1008.1 |
| 20260906033104 | 28 | 146 | 1.6 | 6.4 | 0.00 | 0.00 | 0.00 | 54 | 1007.8 |
| 20260906031550 | 29 | 155 | 1.6 | 4.8 | 0.00 | 0.00 | 0.00 | 52 | 1007.7 |
| 20260906030050 | 29 | 150 | 1.6 | 8.0 | 0.00 | 0.00 | 0.00 | 51 | 1007.7 |
| 20260906024600 | 30 | 135 | 3.2 | 8.0 | 0.00 | 0.00 | 0.00 | 50 | 1007.5 |
| 20260906023059 | 30 | 159 | 3.2 | 12.9 | 0.00 | 0.00 | 0.00 | 49 | 1007.1 |
| 20260906021548 | 31 | 153 | 8.0 | 12.9 | 0.00 | 0.00 | 0.00 | 48 | 1007.1 |
| 20260906020047 | 31 | 171 | 6.4 | 9.7 | 0.00 | 0.00 | 0.00 | 48 | 1007.1 |
| 20260906014548 | 31 | 151 | 6.4 | 14.5 | 0.00 | 0.00 | 0.00 | 47 | 1006.8 |
| 20260906013047 | 32 | 172 | 9.7 | 14.5 | 0.00 | 0.00 | 0.00 | 46 | 1006.6 |
| 20260906011546 | 32 | 159 | 4.8 | 9.7 | 0.00 | 0.00 | 0.00 | 46 | 1006.5 |
| 20260906010046 | 32 | 132 | 6.4 | 9.7 | 0.00 | 0.00 | 0.00 | 45 | 1006.5 |
| 20260906004546 | 33 | 133 | 6.4 | 9.7 | 0.00 | 0.00 | 0.00 | 44 | 1006.5 |
| 20260906003045 | 33 | 125 | 3.2 | 8.0 | 0.00 | 0.00 | 0.00 | 43 | 1006.6 |
| 20260906001545 | 33 | 144 | 4.8 | 9.7 | 0.00 | 0.00 | 0.00 | 42 | 1006.5 |
| 20260906000044 | 34 | 138 | 6.4 | 9.7 | 0.00 | 0.00 | 0.00 | 41 | 1006.3 |
| 20260905234547 | 35 | 188 | 4.8 | 11.3 | 0.00 | 0.00 | 0.00 | 40 | 1006.3 |
| 20260905233054 | 35 | 129 | 8.0 | 16.1 | 0.00 | 0.00 | 0.00 | 38 | 1006.4 |
| 20260905231542 | 35 | 127 | 4.8 | 17.7 | 0.00 | 0.00 | 0.00 | 38 | 1006.5 |
| 20260905230041 | 36 | 167 | 8.0 | 16.1 | 0.00 | 0.00 | 0.00 | 38 | 1006.5 |
| 20260905224608 | 36 | 138 | 8.0 | 14.5 | 0.00 | 0.00 | 0.00 | 37 | 1006.4 |
| 20260905223044 | 36 | 175 | 8.0 | 17.7 | 0.00 | 0.00 | 0.00 | 36 | 1006.4 |
| 20260905221540 | 36 | 153 | 8.0 | 14.5 | 0.00 | 0.00 | 0.00 | 37 | 1006.4 |
| 20260905220039 | 37 | 117 | 9.7 | 17.7 | 0.00 | 0.00 | 0.00 | 36 | 1006.2 |
| 20260905214544 | 37 | 126 | 8.0 | 22.5 | 0.00 | 0.00 | 0.00 | 35 | 1006.0 |
| 20260905213034 | 38 | 121 | 9.7 | 17.7 | 0.00 | 0.00 | 0.00 | 34 | 1006.2 |
| 20260905211543 | 37 | 148 | 4.8 | 24.1 | 0.00 | 0.00 | 0.00 | 35 | 1006.3 |
| 20260905210042 | 38 | 128 | 6.4 | 32.2 | 0.00 | 0.00 | 0.00 | 34 | 1006.3 |
| 20260905204532 | 39 | 127 | 11.3 | 29.0 | 0.00 | 0.00 | 0.00 | 34 | 1006.3 |
| 20260905203032 | 38 | 213 | 9.7 | 24.1 | 0.00 | 0.00 | 0.00 | 33 | 1006.4 |
| 20260905201531 | 38 | 134 | 9.7 | 22.5 | 0.00 | 0.00 | 0.00 | 34 | 1006.7 |
| 20260905200030 | 37 | 155 | 9.7 | 24.1 | 0.00 | 0.00 | 0.00 | 37 | 1006.9 |
| 20260905194529 | 38 | 169 | 16.1 | 25.7 | 0.00 | 0.00 | 0.00 | 35 | 1007.0 |